[[{"header":{"parameterUnit":"m.s-1","parameterCategory":1,"la1":30.2991,"la2":30.254,"lo1":-89.0895,"lo2":-89.0444,"dy":0.0017,"dx":0.0017,"nx":28,"ny":28,"refTime":"2025-09-15T21:00:00:Z","depth":0,"parameterNumber":2,"parameterNumberName":"U-component_of_WINDS"},"data":[0,0,0,0,0,0,0,0,0,0,0,0,0,0,0,0,0,0,0,0,0,0,0,0,0,0,0,0,0,0,0,0,0,0,0,0,0,0,0,0,0,0,0,0,0,0,0,0,0,0,0,0,0,0,0,0,0,0,0.915,0.915,0,0.9127,0.9127,0.9127,0.9106,0.9105,0.9105,0.9105,0.9081,0.908,0.908,0,0,0,0,0,0,0,0,0,0,0,0,0,0.9172,0.9172,0.915,0.915,0.9149,0.9127,0.9127,0.9127,0.9106,0.9105,0.9105,0.9105,0.9081,0.908,0.908,0,0,0,0,0,0,0,0,0,0,0,0,0,0.9157,0.9171,0.915,0.9136,0.9135,0.9127,0.9127,0.9127,0.9106,0.9105,0.9105,0.9105,0.9081,0.908,0.908,0.9084,0,0,0.9078,0.9078,0,0,0,0,0,0,0,0,0.9158,0.9156,0.9138,0.9137,0.9135,0.9119,0.9126,0.9112,0.9106,0.9117,0.9105,0.9104,0.9094,0.9092,0.9089,0.9083,0.9082,0.9078,0.9077,0.9077,0.9077,0,0,0,0,0,0,0,0.9159,0.9157,0.9141,0.9138,0.9136,0.913,0.9128,0.9123,0.9108,0.9116,0.9114,0.9112,0.9093,0.9089,0.9088,0.9081,0.9078,0.9077,0.9077,0.9077,0.9075,0.9075,0,0,0,0,0,0,0.9162,0.9158,0.9142,0.914,0.9146,0.913,0.9127,0.9125,0.9108,0.9105,0.9112,0.9111,0.909,0.9089,0.9087,0.9089,0.9077,0.9077,0.9076,0.9075,0.9075,0.9075,0,0,0,0,0,0,0.9163,0.9161,0.9143,0.9149,0.9146,0.913,0.9127,0.9124,0.9121,0.9105,0.9102,0.9112,0.909,0.9088,0.9084,0.9088,0.9076,0.9076,0.9074,0.9075,0.9075,0.9094,0,0,0,0,0,0,0.9164,0.9161,0.9164,0.9149,0.9146,0.9141,0.9128,0.9124,0.912,0.9118,0.9104,0.9101,0.9089,0.9085,0.9084,0.9087,0.9075,0.9074,0.9074,0.9075,0.9093,0.9095,0.9097,0,0,0,0,0,0.9165,0.917,0.9164,0.9162,0.9148,0.9142,0.914,0.9127,0.912,0.9122,0.9111,0.9101,0.9088,0.9085,0.9083,0.9086,0.9073,0.9074,0.9075,0.9092,0.9094,0.9097,0,0,0,0,0,0,0.9186,0.9168,0.9161,0.9162,0.9153,0.9138,0.914,0.913,0.9123,0.9122,0.9106,0.9102,0.91,0.9093,0.909,0.9088,0.9079,0.9079,0.9093,0.9095,0.9097,0.9098,0.9075,0,0,0,0,0,0.9191,0.9187,0.9172,0.9174,0.917,0.9156,0.9152,0.9143,0.9133,0.9129,0.9119,0.9109,0.9102,0.9098,0.9091,0.9092,0.9087,0.9092,0.9094,0.9096,0.9096,0.9094,0.9095,0.9078,0.9078,0.9078,0,0,0.9201,0.9191,0.919,0.9178,0.917,0.9166,0.9153,0.915,0.9146,0.9129,0.9124,0.9116,0.9104,0.9102,0.91,0.9096,0.91,0.9097,0.9098,0.9098,0.9094,0.9096,0.9098,0.9078,0.9078,0.9078,0,0,0.9216,0.9209,0.9209,0.9202,0.919,0.918,0.918,0.9165,0.9159,0.9154,0.9141,0.9136,0.9125,0.9116,0.9111,0.9121,0.9111,0.9119,0.9129,0.9126,0.9128,0.9129,0.9131,0.9132,0.9119,0.9119,0.9119,0,0.923,0.9224,0.9211,0.9207,0.9202,0.9186,0.9185,0.9178,0.9165,0.9161,0.9156,0.9141,0.9132,0.9126,0.9128,0.9125,0.9123,0.912,0.9129,0.913,0.9131,0.9132,0.9133,0.912,0.912,0.912,0.912,0,0.924,0.9236,0.9238,0.9225,0.9219,0.9218,0.9203,0.9199,0.919,0.918,0.9174,0.9162,0.9152,0.915,0.9141,0.9142,0.914,0.9132,0.9123,0.9133,0.9135,0.9135,0.9122,0.9121,0.9121,0.9121,0,0,0.927,0.9248,0.9249,0.9242,0.9227,0.9223,0.9219,0.9209,0.9205,0.9196,0.9191,0.9182,0.9174,0.9167,0.9157,0.9155,0.9162,0.9147,0.9147,0.9149,0.916,0.9165,0.9167,0.9155,0.9155,0.9155,0.9161,0,0.9282,0.9275,0.9262,0.9259,0.9254,0.9238,0.9235,0.9224,0.9214,0.9208,0.9197,0.9189,0.9181,0.9176,0.9174,0.9161,0.9163,0.9161,0.9149,0.9149,0.9152,0.9167,0.9173,0.9179,0.9161,0.9161,0.9161,0,0.9295,0.9286,0.9283,0.9266,0.9264,0.9261,0.9249,0.9244,0.9231,0.9224,0.9216,0.9204,0.9198,0.919,0.918,0.9179,0.9173,0.9166,0.9166,0.9164,0.9156,0.9165,0.9181,0.9182,0.9162,0.9162,0.9162,0,0.9314,0.9302,0.9298,0.9292,0.9274,0.9272,0.9264,0.925,0.9244,0.9234,0.923,0.9219,0.9213,0.9204,0.9189,0.9185,0.918,0.9172,0.9173,0.9173,0.9173,0.9173,0.9188,0.9171,0.9171,0.9171,0.9171,0,0.9329,0.9327,0.9306,0.9303,0.93,0.9284,0.9281,0.9272,0.926,0.9254,0.924,0.9234,0.9216,0.9208,0.9196,0.9189,0.9186,0.9179,0.9176,0.918,0.9181,0.9176,0.9175,0.9171,0.9171,0.9171,0.9171,0,0.935,0.9336,0.933,0.9312,0.9308,0.9306,0.929,0.9286,0.9275,0.9268,0.9265,0.9247,0.9237,0.9222,0.9207,0.9199,0.9193,0.9188,0.9197,0.9195,0.9197,0.9197,0.9208,0.9209,0.9193,0.9193,0.9193,0,0.9359,0.9357,0.9339,0.9334,0.9327,0.9319,0.9313,0.9297,0.929,0.9275,0.9272,0.9261,0.9251,0.9235,0.922,0.9208,0.9202,0.9207,0.9201,0.9204,0.9201,0.9201,0.92,0.9209,0.9209,0.9209,0.9209,0,0.9377,0.937,0.9361,0.935,0.9343,0.9333,0.9323,0.9319,0.9301,0.9294,0.9284,0.9276,0.926,0.9248,0.9234,0.9224,0.9213,0.9212,0.9211,0.9215,0.922,0.9216,0.9201,0.9211,0.9211,0.9211,0.9211,0.9211,0.9391,0.9388,0.9374,0.9365,0.9355,0.9346,0.9341,0.9329,0.932,0.9306,0.9297,0.9286,0.9271,0.9251,0.9242,0.9233,0.9228,0.9228,0.9227,0.9227,0.9228,0.9222,0.923,0.923,0.923,0.923,0.923,0,0.9407,0.9397,0.9389,0.9374,0.9366,0.9357,0.9345,0.9338,0.9329,0.9317,0.9307,0.9294,0.9282,0.9266,0.9253,0.9248,0.9243,0.9245,0.9245,0.9243,0.9234,0.9235,0.925,0.925,0.925,0.925,0.925,0.925,0.9414,0.9407,0.9399,0.9387,0.9377,0.9366,0.936,0.935,0.934,0.9326,0.9316,0.9306,0.9292,0.9277,0.9265,0.926,0.9256,0.926,0.9253,0.9245,0.9243,0.9242,0.9243,0.9259,0.9259,0.9263,0.9263,0.9263]},{"header":{"parameterUnit":"m.s-1","parameterCategory":1,"la1":30.2991,"la2":30.254,"lo1":-89.0895,"lo2":-89.0444,"dy":0.0017,"dx":0.0017,"nx":28,"ny":28,"refTime":"2025-09-15T21:00:00:Z","depth":0,"parameterNumber":3,"parameterNumberName":"V-component_of_WINDS"},"data":[0,0,0,0,0,0,0,0,0,0,0,0,0,0,0,0,0,0,0,0,0,0,0,0,0,0,0,0,0,0,0,0,0,0,0,0,0,0,0,0,0,0,0,0,0,0,0,0,0,0,0,0,0,0,0,0,0,0,2.0229,2.0229,0,2.0253,2.0253,2.0253,2.0232,2.0231,2.023,2.0229,2.0253,2.0255,2.0256,0,0,0,0,0,0,0,0,0,0,0,0,0,2.0161,2.0163,2.0229,2.0229,2.0229,2.0253,2.0253,2.0253,2.0232,2.0231,2.023,2.0229,2.0253,2.0255,2.0256,0,0,0,0,0,0,0,0,0,0,0,0,0,2.0188,2.0163,2.0228,2.0221,2.0221,2.0253,2.0253,2.0254,2.0232,2.0231,2.023,2.0228,2.0252,2.0254,2.0257,2.0296,0,0,2.0263,2.0264,0,0,0,0,0,0,0,0,2.0187,2.0191,2.0222,2.0222,2.0222,2.0238,2.0238,2.0268,2.0233,2.0228,2.0229,2.0228,2.0249,2.0252,2.0259,2.0298,2.0299,2.0264,2.0265,2.0266,2.0266,0,0,0,0,0,0,0,2.0185,2.019,2.0238,2.0223,2.0222,2.0216,2.0219,2.0244,2.0246,2.0228,2.0227,2.023,2.0249,2.0257,2.0259,2.0299,2.0263,2.0265,2.0267,2.0268,2.0368,2.037,0,0,0,0,0,0,2.0184,2.0188,2.0237,2.0239,2.0201,2.0218,2.0221,2.0234,2.0245,2.0246,2.0231,2.0229,2.0254,2.0257,2.026,2.0306,2.0266,2.0268,2.0269,2.0367,2.0369,2.037,0,0,0,0,0,0,2.0183,2.0189,2.0236,2.0213,2.0219,2.0221,2.0236,2.0235,2.0243,2.0248,2.0248,2.0239,2.0253,2.0257,2.0287,2.0306,2.0269,2.0271,2.0365,2.0368,2.0369,2.0398,0,0,0,0,0,0,2.0181,2.0188,2.0204,2.0214,2.022,2.0264,2.0237,2.0237,2.0247,2.0245,2.0255,2.0256,2.0252,2.0284,2.0289,2.0309,2.0273,2.0364,2.0366,2.0369,2.0395,2.0401,2.0405,0,0,0,0,0,2.0179,2.0212,2.0205,2.0211,2.024,2.0265,2.0268,2.0264,2.0249,2.0264,2.0266,2.0255,2.0303,2.0287,2.0293,2.0313,2.0362,2.0366,2.0369,2.0393,2.04,2.0405,0,0,0,0,0,0,2.0205,2.0213,2.0206,2.0243,2.0253,2.0261,2.028,2.0272,2.0286,2.0283,2.0277,2.028,2.0311,2.0315,2.0297,2.0351,2.033,2.0335,2.0347,2.0353,2.0358,2.0356,2.0274,0,0,0,0,0,2.0215,2.0235,2.0241,2.0273,2.0278,2.0279,2.0289,2.0285,2.0295,2.0299,2.0304,2.0314,2.0331,2.0343,2.0359,2.0396,2.0397,2.0413,2.0418,2.0422,2.0425,2.0443,2.0449,2.038,2.038,2.038,0,0,2.0236,2.0243,2.0256,2.0278,2.0286,2.0305,2.0282,2.0305,2.0319,2.0303,2.0331,2.0334,2.0345,2.0378,2.0393,2.0383,2.0444,2.0426,2.0429,2.043,2.0447,2.0453,2.0459,2.0382,2.0382,2.0382,0,0,2.0284,2.0292,2.0319,2.0326,2.0338,2.0337,2.0343,2.0352,2.0354,2.0382,2.0369,2.0386,2.0416,2.0423,2.0431,2.048,2.0469,2.0485,2.0511,2.0528,2.0534,2.0539,2.0554,2.056,2.0489,2.0489,2.0489,0,2.0309,2.0339,2.0334,2.0356,2.0365,2.0351,2.0377,2.0385,2.0401,2.0407,2.0395,2.0431,2.0438,2.0471,2.0483,2.049,2.0496,2.0484,2.0534,2.0538,2.0543,2.0557,2.0563,2.0491,2.0491,2.049,2.049,0,2.0367,2.0388,2.0408,2.0423,2.0434,2.0459,2.0456,2.0468,2.0463,2.0463,2.049,2.0497,2.0513,2.0521,2.0517,2.0554,2.0546,2.0535,2.0513,2.0551,2.0564,2.057,2.0493,2.0493,2.0492,2.0492,0,0,2.0433,2.0444,2.0451,2.0456,2.0467,2.0482,2.0505,2.0521,2.053,2.0542,2.0559,2.0584,2.0572,2.0581,2.0577,2.0592,2.0627,2.0578,2.0578,2.0585,2.0666,2.0674,2.0681,2.0621,2.0622,2.0623,2.0665,0,2.048,2.052,2.0515,2.0552,2.057,2.0556,2.0575,2.0583,2.0583,2.0598,2.0598,2.0615,2.06,2.0604,2.0619,2.062,2.0643,2.0617,2.0636,2.0637,2.0632,2.0688,2.0697,2.0736,2.067,2.0671,2.0672,0,2.0541,2.0553,2.0592,2.0597,2.0604,2.0622,2.0634,2.0649,2.0657,2.0656,2.0665,2.0657,2.0678,2.0658,2.0686,2.0668,2.0676,2.0677,2.0678,2.0679,2.0656,2.0689,2.0749,2.0754,2.068,2.068,2.0679,0,2.0582,2.0609,2.0634,2.064,2.0648,2.066,2.0663,2.067,2.0679,2.069,2.0695,2.0709,2.0716,2.0726,2.0722,2.0708,2.0751,2.073,2.0749,2.0749,2.0758,2.0757,2.0819,2.0765,2.0765,2.0765,2.0765,0,2.0635,2.0658,2.0653,2.0669,2.0694,2.0688,2.0713,2.0715,2.0721,2.0736,2.0725,2.074,2.0734,2.0747,2.0744,2.0767,2.0771,2.077,2.0768,2.077,2.077,2.0773,2.077,2.0767,2.0766,2.0766,2.0766,0,2.0685,2.0683,2.071,2.0714,2.0716,2.0734,2.0737,2.0752,2.0751,2.077,2.0774,2.0773,2.0788,2.0785,2.0802,2.08,2.0828,2.0824,2.0825,2.0823,2.0842,2.084,2.0907,2.0915,2.0858,2.0858,2.0859,0,2.0718,2.0736,2.0741,2.075,2.0755,2.077,2.0778,2.0772,2.0782,2.0791,2.0803,2.0818,2.0829,2.0853,2.0854,2.0866,2.0861,2.0884,2.0863,2.0863,2.086,2.0858,2.0859,2.0888,2.0889,2.0889,2.089,0,2.0776,2.0773,2.0786,2.0798,2.0808,2.0817,2.0825,2.0833,2.0828,2.0838,2.0853,2.0862,2.0878,2.0892,2.0903,2.0906,2.0896,2.0896,2.0901,2.0902,2.0901,2.09,2.0834,2.0894,2.0894,2.0894,2.0893,2.0893,2.0817,2.0831,2.0837,2.0851,2.0856,2.0863,2.0876,2.0876,2.0889,2.0901,2.0897,2.0914,2.0919,2.0933,2.0937,2.095,2.0941,2.0949,2.095,2.0952,2.0953,2.09,2.0952,2.0952,2.0952,2.0952,2.0952,0,2.0873,2.0875,2.0888,2.0899,2.0909,2.0899,2.0907,2.0916,2.0931,2.0937,2.0947,2.0964,2.0976,2.0977,2.0989,2.0998,2.0994,2.1001,2.1,2.1,2.0961,2.0955,2.1005,2.1005,2.1005,2.1005,2.1005,2.1005,2.0903,2.0925,2.0923,2.0947,2.0949,2.0965,2.097,2.0976,2.0981,2.0999,2.1009,2.101,2.1013,2.1024,2.1035,2.1035,2.1039,2.1048,2.1046,2.1009,2.1003,2.0998,2.0992,2.1049,2.1049,2.1084,2.1084,2.1084]}]]